When you browse on this site, cookies collect data to enhance your experience and personalize the content and advertising you see.
Visit our Privacy Policy to learn more. By continuing to use the site, you agree to this use of cookies and data.
  • In United Kingdom
  • List of Countries
  • For 7 days
  • Water Temperature
  • Weather Map
  • Weather Widgets
  • user-avatar
    Login

    Hourly Weather Antwerp

    Today, 20 October, Sunday

    Time Temperature Precipitation Wind Pressure Humidity
    00:00 +10°C° 0 mm 3 mps 754 mmHg 86%
    01:00 +10°C° 0 mm 2 mps 754 mmHg 86%
    02:00 +10°C° 0 mm 2 mps 754 mmHg 86%
    03:00 +11°C° 0 mm 1 mps 754 mmHg 87%
    04:00 +11°C° 0 mm 1 mps 754 mmHg 87%
    05:00 +11°C° 0 mm 1 mps 755 mmHg 88%
    06:00 +11°C° 0 mm 1 mps 755 mmHg 90%
    07:00 +11°C° 0 mm 0 mps 755 mmHg 87%
    08:00 +11°C° 0 mm 0 mps 755 mmHg 84%
    09:00 +12°C° 0 mm 0 mps 755 mmHg 81%
    10:00 +13°C° 0.5 mm 1 mps 755 mmHg 83%
    11:00 +13°C° 0.5 mm 1 mps 755 mmHg 86%
    12:00 +13°C° 0.5 mm 2 mps 756 mmHg 88%
    13:00 +12°C° 0.6 mm 2 mps 755 mmHg 88%
    14:00 +11°C° 0.6 mm 3 mps 755 mmHg 89%
    15:00 +11°C° 0.6 mm 3 mps 755 mmHg 89%
    16:00 +11°C° 0.2 mm 3 mps 755 mmHg 89%
    17:00 +11°C° 0.2 mm 3 mps 756 mmHg 89%
    18:00 +10°C° 0.2 mm 3 mps 756 mmHg 89%
    19:00 +11°C° 0 mm 4 mps 756 mmHg 88%
    20:00 +11°C° 0 mm 4 mps 756 mmHg 88%
    21:00 +11°C° 0 mm 4 mps 756 mmHg 87%
    22:00 +11°C° 0.1 mm 4 mps 756 mmHg 89%
    23:00 +11°C° 0.1 mm 4 mps 756 mmHg 91%

    Tomorrow, 21 October, Monday

    Time Temperature Precipitation Wind Pressure Humidity
    00:00 +11°C° 0.1 mm 4 mps 757 mmHg 93%
    01:00 +11°C° 1.8 mm 4 mps 756 mmHg 94%
    02:00 +11°C° 1.8 mm 3 mps 756 mmHg 96%
    03:00 +11°C° 1.8 mm 3 mps 755 mmHg 97%
    04:00 +11°C° 1.3 mm 3 mps 756 mmHg 97%
    05:00 +12°C° 1.3 mm 3 mps 757 mmHg 97%
    06:00 +12°C° 1.3 mm 3 mps 757 mmHg 97%
    07:00 +12°C° 0.1 mm 4 mps 757 mmHg 92%
    08:00 +13°C° 0.1 mm 5 mps 758 mmHg 87%
    09:00 +14°C° 0.1 mm 6 mps 758 mmHg 82%
    10:00 +14°C° 0 mm 6 mps 759 mmHg 79%
    11:00 +14°C° 0 mm 6 mps 759 mmHg 76%
    12:00 +14°C° 0 mm 6 mps 760 mmHg 73%
    13:00 +14°C° 0 mm 5 mps 760 mmHg 75%
    14:00 +14°C° 0 mm 4 mps 760 mmHg 76%
    15:00 +14°C° 0 mm 4 mps 760 mmHg 77%
    16:00 +13°C° 0 mm 3 mps 761 mmHg 81%
    17:00 +12°C° 0 mm 3 mps 762 mmHg 85%
    18:00 +12°C° 0 mm 3 mps 762 mmHg 89%
    19:00 +12°C° 0 mm 4 mps 763 mmHg 89%
    20:00 +12°C° 0 mm 5 mps 763 mmHg 89%
    21:00 +12°C° 0 mm 5 mps 764 mmHg 88%
    22:00 +12°C° 0 mm 5 mps 764 mmHg 88%
    23:00 +12°C° 0 mm 5 mps 765 mmHg 87%

    Day after tomorrow, 22 October, Tuesday

    Time Temperature Precipitation Wind Pressure Humidity
    00:00 +12°C° 0 mm 5 mps 765 mmHg 86%
    01:00 +12°C° 0 mm 5 mps 765 mmHg 87%
    02:00 +12°C° 0 mm 5 mps 765 mmHg 89%
    03:00 +11°C° 0 mm 4 mps 765 mmHg 90%
    04:00 +11°C° 0 mm 4 mps 766 mmHg 91%
    05:00 +10°C° 0 mm 3 mps 766 mmHg 92%
    06:00 +10°C° 0 mm 3 mps 766 mmHg 92%
    07:00 +11°C° 0 mm 3 mps 766 mmHg 90%
    08:00 +11°C° 0 mm 3 mps 767 mmHg 88%
    09:00 +12°C° 0 mm 3 mps 767 mmHg 86%
    10:00 +13°C° 0 mm 3 mps 767 mmHg 82%
    11:00 +15°C° 0 mm 2 mps 767 mmHg 77%
    12:00 +16°C° 0 mm 2 mps 768 mmHg 73%
    13:00 +15°C° 0 mm 2 mps 767 mmHg 72%
    14:00 +15°C° 0 mm 1 mps 767 mmHg 72%
    15:00 +15°C° 0 mm 1 mps 767 mmHg 71%
    16:00 +14°C° 0 mm 1 mps 767 mmHg 76%
    17:00 +13°C° 0 mm 1 mps 767 mmHg 81%
    18:00 +12°C° 0 mm 1 mps 767 mmHg 86%
    19:00 +11°C° 0 mm 1 mps 766 mmHg 88%
    20:00 +11°C° 0 mm 1 mps 766 mmHg 89%
    21:00 +10°C° 0 mm 1 mps 766 mmHg 91%
    22:00 +9°C° 0 mm 2 mps 766 mmHg 91%
    23:00 +9°C° 0 mm 2 mps 766 mmHg 91%

    23 October, Wednesday

    Time Temperature Precipitation Wind Pressure Humidity
    00:00 +9°C° 0 mm 2 mps 765 mmHg 91%
    01:00 +9°C° 0 mm 2 mps 765 mmHg 91%
    02:00 +9°C° 0 mm 2 mps 764 mmHg 91%
    03:00 +9°C° 0 mm 3 mps 764 mmHg 91%
    04:00 +9°C° 0 mm 3 mps 763 mmHg 91%
    05:00 +9°C° 0 mm 3 mps 763 mmHg 91%
    06:00 +9°C° 0 mm 3 mps 762 mmHg 91%
    07:00 +10°C° 0 mm 3 mps 762 mmHg 87%
    08:00 +11°C° 0 mm 4 mps 762 mmHg 83%
    09:00 +12°C° 0 mm 4 mps 761 mmHg 79%
    10:00 +14°C° 0 mm 4 mps 761 mmHg 76%
    11:00 +15°C° 0 mm 4 mps 760 mmHg 73%
    12:00 +17°C° 0 mm 3 mps 760 mmHg 70%
    13:00 +18°C° 0 mm 4 mps 759 mmHg 71%
    14:00 +18°C° 0 mm 4 mps 758 mmHg 73%
    15:00 +18°C° 0 mm 4 mps 757 mmHg 74%
    16:00 +17°C° 0 mm 4 mps 757 mmHg 78%
    17:00 +15°C° 0 mm 4 mps 757 mmHg 82%
    18:00 +14°C° 0 mm 4 mps 756 mmHg 85%
    19:00 +14°C° 0 mm 3 mps 756 mmHg 88%
    20:00 +13°C° 0 mm 3 mps 756 mmHg 90%
    21:00 +14°C° 0 mm 2 mps 756 mmHg 92%
    22:00 +14°C° 0 mm 2 mps 756 mmHg 92%
    23:00 +14°C° 0 mm 2 mps 756 mmHg 92%

    24 October, Thursday

    Time Temperature Precipitation Wind Pressure Humidity
    00:00 +14°C° 0 mm 2 mps 756 mmHg 93%
    01:00 +13°C° 0 mm 2 mps 756 mmHg 93%
    02:00 +13°C° 0 mm 2 mps 755 mmHg 94%
    03:00 +13°C° 0 mm 2 mps 755 mmHg 94%
    04:00 +12°C° 0 mm 2 mps 755 mmHg 94%
    05:00 +12°C° 0 mm 2 mps 755 mmHg 93%
    06:00 +11°C° 0 mm 3 mps 755 mmHg 93%
    07:00 +13°C° 0 mm 3 mps 755 mmHg 89%
    08:00 +14°C° 0 mm 3 mps 756 mmHg 84%
    09:00 +17°C° 0 mm 4 mps 756 mmHg 80%
    10:00 +18°C° 0 mm 4 mps 756 mmHg 73%
    11:00 +19°C° 0 mm 5 mps 756 mmHg 66%
    12:00 +20°C° 0 mm 6 mps 756 mmHg 59%
    13:00 +20°C° 0 mm 5 mps 756 mmHg 61%
    14:00 +20°C° 0 mm 4 mps 756 mmHg 62%
    15:00 +19°C° 0 mm 4 mps 756 mmHg 64%
    16:00 +18°C° 0 mm 3 mps 757 mmHg 70%
    17:00 +17°C° 0 mm 3 mps 757 mmHg 77%
    18:00 +14°C° 0 mm 3 mps 758 mmHg 83%
    19:00 +14°C° 0 mm 3 mps 758 mmHg 86%
    20:00 +13°C° 0 mm 3 mps 759 mmHg 89%
    21:00 +14°C° 0 mm 2 mps 759 mmHg 92%
    22:00 +13°C° 0 mm 3 mps 759 mmHg 93%
    23:00 +13°C° 0 mm 3 mps 760 mmHg 93%

    25 October, Friday

    Time Temperature Precipitation Wind Pressure Humidity
    00:00 +12°C° 0 mm 3 mps 760 mmHg 94%
    01:00 +13°C° 0 mm 2 mps 760 mmHg 93%
    02:00 +12°C° 0 mm 2 mps 760 mmHg 93%
    03:00 +12°C° 0 mm 2 mps 761 mmHg 93%
    04:00 +12°C° 0 mm 2 mps 761 mmHg 93%
    05:00 +10°C° 0 mm 2 mps 761 mmHg 94%
    06:00 +10°C° 0 mm 2 mps 761 mmHg 94%
    07:00 +12°C° 0 mm 2 mps 761 mmHg 90%
    08:00 +13°C° 0 mm 2 mps 762 mmHg 86%
    09:00 +13°C° 0 mm 3 mps 762 mmHg 83%
    10:00 +14°C° 0 mm 3 mps 762 mmHg 78%
    11:00 +16°C° 0 mm 3 mps 762 mmHg 74%
    12:00 +17°C° 0 mm 3 mps 762 mmHg 70%
    13:00 +17°C° 0 mm 3 mps 761 mmHg 70%
    14:00 +17°C° 0 mm 3 mps 761 mmHg 71%
    15:00 +17°C° 0 mm 2 mps 761 mmHg 71%
    16:00 +16°C° 0 mm 3 mps 761 mmHg 76%
    17:00 +14°C° 0 mm 3 mps 760 mmHg 80%
    18:00 +13°C° 0 mm 3 mps 760 mmHg 85%
    19:00 +13°C° 0 mm 4 mps 760 mmHg 84%
    20:00 +13°C° 0 mm 5 mps 760 mmHg 83%
    21:00 +13°C° 0 mm 5 mps 760 mmHg 83%
    22:00 +13°C° 0 mm 6 mps 759 mmHg 81%
    23:00 +13°C° 0 mm 6 mps 759 mmHg 80%
    Show more